Flag for South Africa Weather past 2 weeks in Port Elizabeth, South Africa

Now
54 °F

Passing clouds.


Feels Like: 49 °F
Forecast: 51 / 63 °F
Wind: 15 mph from West

Location: Port Elizabeth Airport

Current Time: Jul 25, 2014 at 11:34:12 PM

Latest Report: Jul 25, 2014 at 10:00 PM


Visibility: N/A

Pressure: 29.98 "Hg

Humidity: 82%

Dew point: 48 °F

Location of Port ElizabethLocation

Historic Weather in Port Elizabeth — Graph

°F

Port Elizabeth temperature yesterday

Maximum temperature yesterday: 81 °F (at 3:00 PM)
Minimum temperature yesterday: 50 °F (at 8:00 AM)
Average temperature yesterday: 62 °F

Past Weeks' High & Low Weather Summary

 TemperatureHumidityPressure
High81 °F (Jul 24, 3:00 PM)94% (Jul 14, 2:00 AM)30.45 "Hg (Jul 14, 2:00 AM)
Low39 °F (Jul 16, 4:00 AM)26% (Jul 24, 3:00 PM)29.59 "Hg (Jul 17, 3:01 PM)
Average58 °F68%30.09 "Hg
* Reported Jul 10 10:00 PM — Jul 25 10:00 PM, Port Elizabeth, Weather by CustomWeather, © 2014

Note: Actual official high and low records may vary slightly from our data, if they occured in-between our weather recording intervals... More about our weather records

Advertising

Port Elizabeth weather history for previous 24 hours

 ConditionsComfort  
Time TempWeatherWind HumidityBarometerVisibility
10:00 PM
Jul 25
54 °FPassing clouds.15 mph82%29.98 "HgN/A
9:00 PM55 °FPassing clouds.15 mph77%29.98 "HgN/A
8:00 PM55 °FPassing clouds.23 mph82%29.95 "Hg6 mi
7:00 PM59 °FPassing clouds.23 mph72%29.92 "HgN/A
6:00 PM59 °FPassing clouds.24 mph72%29.89 "HgN/A
5:48 PM59 °FPassing clouds.25 mph72%29.86 "HgN/A
5:00 PM63 °FPassing clouds.23 mph59%29.83 "HgN/A
4:00 PM66 °FPassing clouds.7 mph56%29.83 "HgN/A
3:00 PM64 °FPassing clouds.7 mph60%29.80 "HgN/A
2:00 PM68 °FPassing clouds.8 mph46%29.80 "HgN/A
1:00 PM68 °FPassing clouds.7 mph46%29.83 "HgN/A
12:00 PM66 °FPassing clouds.5 mph49%29.86 "HgN/A
11:00 AM61 °FPassing clouds.3 mph68%29.89 "HgN/A
10:00 AM61 °FSunny.1 mph59%29.89 "Hg10 mi
9:00 AM54 °FPassing clouds.3 mph82%29.89 "HgN/A
8:00 AM54 °FSunny.2 mph82%29.86 "Hg10 mi
7:55 AM54 °FSunny.2 mph82%29.86 "Hg10 mi
7:00 AM52 °FSunny.5 mph88%29.86 "Hg10 mi
6:00 AM50 °FClear.2 mph94%29.86 "Hg4 mi
5:00 AM54 °FClear.3 mph88%29.83 "Hg10 mi
4:00 AM59 °FPassing clouds.6 mph77%29.83 "HgN/A
3:00 AM57 °FClear.12 mph88%29.83 "Hg10 mi
2:00 AM59 °FClear.17 mph82%29.83 "Hg10 mi
1:00 AM59 °FPassing clouds.23 mph88%29.80 "HgN/A
12:00 AM59 °FPassing clouds.22 mph88%29.80 "HgN/A
11:00 PM
Jul 24
59 °FPassing clouds.18 mph82%29.80 "HgN/A
Weather by CustomWeather, © 2014

See weather overviewHow to use our weather pages